Location: Hohe Wand Kleine Kanzel
(47.8330°N, 16.0170°E)
Time: 16:11:40
(UTC+02:00)

Vanguard 3 - Pass Details

Date: 03 August 2021
Orbit: 509 x 3260 km, 33.4° (Epoch: 27 September)

Event Time Altitude Azimuth Distance (km) Brightness Sun altitude
Rises 01:29:51 0° 276° (W) 7,194 12.0 -24.4°
Reaches altitude 10° 01:37:40 10° 259° (W) 6,184 11.4 -24.2°
Enters shadow 01:47:06 16° 230° (SW) 5,413 10.9 -23.9°
